Location: Ernez
(36.4595°N, 29.8755°E)
Time: 14:36:50
(UTC+00:00)

Daily predictions for brighter satellites

Satellite Brightness Start Highest point End
(mag) Time Altitude Azimuth Time Altitude Azimuth Time Altitude Azimuth
Cosmos 1140 Rocket 3.5 15:18:36 10° S 15:23:43 62° ESE 15:28:49 10° NNE
Cosmos 1725 Rocket 4.2 15:18:57 10° S 15:25:11 78° W 15:31:30 10° N
Landsat 7 4.0 15:21:28 10° SSE 15:25:55 48° ENE 15:30:24 10° N
COSMO-SKYMED 1 3.8 15:25:53 10° NE 15:28:52 19° E 15:31:51 10° SE
Cosmos 2278 Rocket 3.1 15:24:11 10° SSE 15:28:55 28° ESE 15:33:40 10° NE
Cosmos 1025 Rocket 3.6 15:24:48 10° NNW 15:29:03 62° W 15:33:16 10° S
Cosmos 2221 Rocket 4.0 15:24:49 10° NNW 15:29:17 71° W 15:33:41 10° S
Cosmos 2233 Rocket 4.0 15:23:11 10° S 15:29:25 76° E 15:35:44 10° N
SL-12 R/B(2) 4.3 15:22:07 10° S 15:29:26 55° ESE 15:38:02 10° NE
CORIOLIS 4.1 15:25:14 10° SSE 15:30:36 84° ENE 15:36:00 10° NNW
MOS 1 Rocket 3.9 15:27:16 10° SE 15:30:55 29° ENE 15:34:40 10° NNE
NOSS 3-4 (A) 4.1 15:25:59 10° NNW 15:33:11 89° ENE 15:41:34 10° SSE
NOSS 3-4 (C) 4.0 15:26:03 10° NNW 15:33:15 88° ENE 15:41:37 10° SSE
Helios 1A Rocket 3.8 15:31:36 10° NE 15:34:12 20° E 15:36:46 10° SSE
ATLAS CENTAUR R/B 3.8 15:35:01 10° WNW 15:36:00 11° NW 15:37:00 10° NNW
Tiangong -2.2 15:34:45 10° WNW 15:37:56 88° S 15:41:05 10° ESE
YAOGAN 1 3.9 15:36:15 10° ESE 15:39:09 18° ENE 15:42:02 10° NNE
Cosmos 1812 3.7 15:37:28 10° SE 15:39:15 15° E 15:39:40 15° E
Cosmos 1943 Rocket 2.7 15:34:26 10° S 15:39:33 37° ESE 15:44:40 10° NE
ISS -3.6 15:36:36 10° SW 15:39:52 58° SE 15:42:33 14° ENE
CZ-2D R/B 2.6 15:38:26 10° SSE 15:41:36 82° ENE 15:44:46 10° N
Geosat FO 4.4 15:40:52 10° SE 15:43:38 40° ENE 15:46:22 10° N
ARIANE 5 R/B 2.5 15:41:31 10° SSE 15:46:30 87° WSW 15:51:29 10° NNW
IRS-1C 4.2 15:45:13 10° SSE 15:50:32 82° WSW 15:55:53 10° NNW
AQUARIUS 4.0 15:50:09 10° SSE 15:54:32 81° ENE 15:58:57 10° N
PSLV R/B 4.2 15:55:50 10° SE 15:59:17 28° ENE 16:02:44 10° NNE
BREEZE-M DEB (TANK) 4.4 15:59:31 10° WNW 16:01:25 20° NNW 16:04:23 11° NNE
SJ 16-02 2.8 16:00:19 10° SE 16:02:46 19° ESE 16:02:46 19° ESE
Cosmos 1869 2.8 15:59:54 10° S 16:03:26 76° E 16:06:58 10° N
SPOT 1/Viking Rocket 3.6 15:59:15 10° SSE 16:04:13 52° ENE 16:09:15 10° N
Delta 2 Rocket 3.8 16:00:54 10° W 16:04:48 50° SSW 16:07:34 17° SE
Tsikada Rocket 4.4 16:00:59 10° N 16:07:22 71° W 16:13:39 10° S
USA 215 3.7 16:06:32 10° SSE 16:12:59 62° SW 16:19:28 10° NW
CZ-2D R/B 3.3 16:10:45 10° SSE 16:14:44 64° ENE 16:18:51 10° N
SL-19 R/B 4.2 16:11:49 10° SE 16:16:54 50° ENE 16:21:55 10° N
Cosmos 1833 Rocket 2.7 16:11:19 10° NNW 16:16:59 85° WSW 16:22:36 10° SSE
OAO 3 Rocket 3.5 16:14:43 10° WSW 16:19:11 49° SSE 16:20:54 32° ESE
RESURS DK-1 4.3 16:17:40 10° N 16:18:37 15° NNE 16:18:37 15° NNE
Cosmos 407 Rocket 3.6 16:16:25 10° SSW 16:21:38 75° WNW 16:26:48 10° NNE
Cosmos 2151 Rocket 3.8 16:19:16 10° SSE 16:23:32 48° E 16:25:26 29° NE
OAO 3 Copernicus 4.3 16:20:42 10° W 16:25:44 77° S 16:27:43 37° ESE
Cosmos 1513 Rocket 4.5 16:20:21 10° S 16:26:38 88° E 16:33:03 10° N
Spot 4 Rocket 3.9 16:24:44 10° SSE 16:29:49 79° ENE 16:34:56 10° N
SL-4 R/B 2.3 16:30:09 10° WNW 16:33:37 54° SW 16:34:57 32° SSE
Cosmos 1975 Rocket 4.3 16:32:15 10° NNW 16:36:21 42° W 16:40:27 10° SSW
OAO 2 Rocket 3.3 16:32:37 10° WSW 16:37:41 73° S 16:39:01 49° ESE
Aureole 3 Rocket 3.6 16:37:59 10° SSW 16:41:08 39° W 16:42:46 21° NNW
IRAS Rocket 4.3 16:36:52 10° SSE 16:42:28 82° WSW 16:48:02 10° NNW
Okean 1 Rocket 4.4 16:41:58 10° S 16:44:06 27° SSE 16:44:06 27° SSE
Cosmos 44 Rocket 3.5 16:41:40 10° SW 16:46:20 68° WNW 16:48:13 36° NNE
Timation 1 Rocket 4.3 16:42:40 10° NNW 16:48:34 60° ENE 16:49:55 48° ESE
Nadezhda 4 Rocket 3.9 16:43:17 10° N 16:49:32 64° E 16:55:41 10° SSE
NOAA 6 3.9 16:48:49 10° SSE 16:53:58 85° ENE 16:59:08 10° NNW
ATLAS 5 CENTAUR R/B 2.1 16:49:44 10° NW 16:54:32 77° WSW 16:57:46 27° SSE
USA 281 3.9 17:03:18 37° NNE 17:03:18 37° NNE 17:07:53 10° N
Cosmos 2251 Rocket 4.0 16:58:39 10° SSW 17:03:48 57° WNW 17:06:37 26° N
COSMO-SKYMED 1 4.4 17:00:38 10° NNW 17:04:11 28° WNW 17:07:42 10° SW
Cosmos 1763 Rocket 3.7 16:59:53 10° NNW 17:05:02 65° WSW 17:08:54 17° S
Cosmos 540 Rocket 3.6 17:06:43 10° NNW 17:11:49 68° WSW 17:12:44 55° SSW
Cosmos 2278 Rocket 3.6 17:07:38 10° SW 17:12:47 35° WNW 17:16:58 15° N
Cosmos 1428 Rocket 4.3 17:06:35 10° N 17:12:53 82° E 17:19:11 10° S
Tiangong 1.1 17:12:35 10° WSW 17:13:28 13° WSW 17:13:28 13° WSW
Cosmos 2082 Rocket 3.3 17:09:09 10° NNW 17:12:08 31° N 17:12:08 31° N
YAOGAN 1 4.2 17:10:53 10° SSW 17:14:43 33° W 17:18:35 10° NNW
ISS -0.8 17:14:32 10° WNW 17:15:30 14° WNW 17:15:30 14° WNW
Geosat 4.2 17:18:35 66° W 17:18:35 66° W 17:23:22 10° NNW
Okean 2 Rocket 4.1 17:15:21 10° SSW 17:18:52 42° WSW 17:18:52 42° WSW
Cosmos 371 Rocket 4.5 17:16:35 10° SSW 17:19:19 35° SSW 17:19:19 35° SSW
Cosmos 1943 Rocket 4.0 17:18:33 10° WSW 17:23:17 28° WNW 17:27:15 13° N
Cosmos 2034 Rocket 4.5 17:28:54 10° SSW 17:34:55 57° W 17:39:22 19° N
SJ 16-02 3.6 17:37:27 10° SW 17:39:23 21° WSW 17:39:23 21° WSW
